Location: Newark
(22.3060°N, 114.2134°E)
Time: 07:40:07
(UTC+00:00)

Vanguard 2 - Pass Details

Date: 05 August 2021
Orbit: 553 x 2937 km, 32.9° (Epoch: 24 September)

Event Time Altitude Azimuth Distance (km) Brightness Sun altitude
Rises 01:35:26 0° 291° (WNW) 3,431 10.5 48.9°
Reaches altitude 10° 01:37:32 10° 288° (WNW) 2,697 10.1 49.4°
Maximum altitude 01:44:03 65° 208° (SSW) 1,452 9.6 50.9°
Drops below altitude 10° 01:55:11 10° 129° (SE) 4,462 12.0 53.4°
Sets 01:59:39 0° 127° (SE) 5,834 12.4 54.5°
